GEFSSGP_con_prob3kmehi_132.txt.gz
EHI
1 1 0 0 0 0 0 0 0 0 0 0 0 1 3 2 1 0 2 13 29 35 27 27 35 38 39 40 38 34 30 26 21 14 8 5 2 0 0 0 0 0 0 0 0 0 0 0 0
1 0 0 0 0 0 0 0 0 0 0 0 1 2 3 2 1 1 5 17 34 39 31 31 39 42 41 41 39 33 27 21 16 10 6 4 1 0 0 0 0 0 0 0 0 0 0 0 0
0 0 0 0 0 0 0 0 0 0 0 0 1 3 3 3 2 4 12 27 42 44 36 37 46 49 45 43 39 31 22 17 12 6 3 2 1 0 0 0 0 0 0 0 0 0 0 0 0
0 0 0 0 0 0 0 0 0 0 1 1 2 3 3 3 5 12 25 41 53 50 39 42 53 54 47 45 39 28 18 13 9 4 1 1 0 0 0 0 0 0 0 0 0 0 0 0 0
0 0 0 0 0 0 0 1 1 1 2 4 6 6 3 4 14 29 42 52 61 58 47 49 57 56 49 45 39 27 15 9 6 3 1 0 0 0 0 0 0 0 1 0 0 0 0 0 0
0 0 0 0 0 0 0 0 1 3 6 9 13 12 6 9 25 44 55 59 65 68 61 57 58 55 50 45 38 26 13 6 3 1 0 0 0 0 0 0 0 0 0 0 0 0 0 0 0
0 0 0 0 0 0 0 0 1 4 9 14 17 15 12 19 35 53 63 67 71 75 71 64 58 52 47 42 36 26 13 5 1 0 0 0 0 0 0 1 0 0 0 0 0 0 0 0 0
0 0 0 0 0 0 0 0 0 4 11 17 17 13 19 36 53 64 71 76 78 78 74 69 61 51 41 33 30 24 14 6 1 0 0 0 0 0 0 0 0 0 0 0 0 0 0 0 0
0 0 0 0 0 0 0 0 0 4 11 16 16 17 34 61 75 76 79 82 82 79 74 69 64 53 39 28 22 19 12 5 1 0 0 0 0 0 0 0 0 0 0 0 0 0 0 0 0
0 0 0 0 0 0 0 1 2 5 10 13 19 35 61 82 87 83 81 81 82 79 73 67 60 53 42 31 22 17 10 4 1 1 0 0 0 0 0 0 0 0 0 0 1 0 0 0 0
0 0 0 0 0 0 1 3 5 7 8 10 27 57 82 90 88 82 78 75 75 76 72 64 56 50 43 35 27 20 11 4 1 1 1 0 0 0 0 0 0 0 0 0 0 0 0 0 0
0 0 0 0 0 0 1 3 5 7 7 12 36 68 87 89 85 78 72 69 69 72 70 62 53 47 42 37 31 21 11 6 3 2 1 0 0 0 0 0 0 0 0 0 0 0 0 0 0
0 0 0 0 0 0 1 2 3 4 7 19 44 70 84 86 83 76 69 66 66 65 63 58 50 43 38 35 27 18 10 6 4 2 1 0 0 0 0 0 0 0 0 0 0 0 0 0 0
0 0 0 0 0 0 1 1 1 2 9 23 45 67 79 82 81 77 71 67 64 59 55 53 45 37 31 26 20 13 9 6 3 2 0 0 0 0 0 0 0 0 0 0 0 0 0 0 0
0 0 0 0 0 0 1 0 0 2 9 23 41 59 71 75 76 75 72 70 63 55 50 46 37 28 21 17 13 10 6 4 3 2 0 0 0 0 0 0 0 0 0 0 0 0 0 0 0
0 0 0 0 0 0 0 0 0 2 10 23 38 52 62 65 66 68 68 67 61 52 45 39 29 20 14 10 8 6 4 3 3 2 0 0 0 0 0 0 0 0 0 0 0 0 0 0 0
0 0 0 0 0 0 0 0 1 3 10 22 35 47 54 55 57 61 61 60 56 48 41 34 24 16 10 7 4 4 3 3 2 1 0 0 0 0 0 0 0 0 0 0 0 0 0 0 0
0 0 0 0 0 0 0 1 2 4 11 21 31 41 46 47 50 54 54 53 51 45 37 30 21 14 8 5 3 3 3 2 1 1 0 0 0 0 0 0 0 0 0 0 0 0 0 0 0
0 0 0 0 0 0 0 1 3 5 11 20 27 32 37 40 44 48 49 48 46 41 32 24 18 12 6 3 3 2 1 1 0 0 0 0 0 0 0 0 0 0 0 0 0 0 0 0 0
0 0 0 0 0 0 0 1 2 4 10 17 22 25 31 36 40 43 43 41 40 37 29 21 15 11 6 3 2 1 0 0 0 0 0 0 0 0 0 0 0 0 0 0 0 0 0 0 0
0 0 0 0 0 0 0 0 1 3 7 13 17 20 27 33 37 39 38 35 35 35 29 21 16 12 7 3 2 2 1 0 0 0 0 0 0 0 0 0 0 0 0 0 0 0 0 0 0
0 0 0 0 0 0 0 0 0 1 4 9 12 16 22 28 33 33 32 32 32 32 28 22 18 15 9 5 4 3 2 1 0 0 0 0 0 0 0 0 0 0 0 0 0 0 0 0 0
0 0 0 0 0 0 0 0 0 0 1 5 9 12 17 24 26 25 25 28 30 28 24 21 19 17 11 5 4 3 2 1 0 0 0 0 0 0 0 0 0 0 0 0 0 0 0 0 0
0 0 0 0 0 0 0 0 0 0 0 2 5 8 13 20 21 19 21 25 27 24 21 19 18 15 9 4 3 2 1 0 0 0 0 0 0 0 0 0 0 0 0 0 0 0 0 0 0
0 0 0 0 0 0 0 0 0 0 0 0 3 6 10 16 20 21 22 23 24 22 19 17 15 13 9 5 3 1 0 0 0 0 0 0 0 0 0 0 0 0 0 0 0 0 0 0 0
0 0 0 0 0 0 0 0 0 0 0 0 3 7 11 14 17 20 20 19 20 19 17 15 15 14 12 8 4 1 0 0 0 0 0 0 0 0 0 0 0 0 0 0 0 0 0 0 0
0 0 0 0 0 0 0 0 0 0 0 0 4 9 12 12 11 12 13 13 15 14 13 12 14 14 13 11 6 2 0 0 0 0 0 0 0 0 0 0 0 0 0 0 0 0 0 0 0
0 0 0 0 0 0 0 0 0 0 0 0 3 8 11 9 7 6 6 8 9 8 8 9 11 13 12 10 6 3 1 0 0 0 0 0 0 0 0 0 0 0 0 0 0 0 0 0 0
0 0 0 0 0 0 0 0 0 0 0 0 1 5 9 9 6 4 4 4 4 4 5 6 8 10 10 8 5 3 2 1 0 0 0 0 0 0 0 0 0 0 0 0 0 0 0 0 0
0 0 0 0 0 0 0 0 0 0 0 0 1 5 9 10 7 4 3 3 3 3 4 4 6 9 9 7 5 3 3 2 1 0 0 0 0 0 0 0 0 0 0 0 0 0 0 0 0

GEFSSGP_con_prob3kmehi_138.txt.gz
EHI
1 1 3 5 4 1 0 0 0 0 0 0 0 0 0 0 0 1 2 3 5 5 4 6 14 22 27 30 31 31 27 20 11 4 1 0 0 0 0 0 0 0 0 0 0 0 0 0 0
0 1 3 3 2 0 0 0 0 0 0 0 1 1 0 1 1 3 5 4 4 5 5 10 17 22 25 29 30 29 26 19 10 4 1 0 0 0 0 0 0 0 0 0 0 0 0 0 0
0 1 2 2 1 0 0 0 0 0 0 0 1 1 1 1 2 6 9 8 6 6 10 19 25 25 25 28 30 28 22 15 8 3 1 0 0 0 0 0 0 0 0 0 0 0 0 0 0
1 2 2 1 0 0 0 0 0 0 0 0 1 2 2 2 3 9 15 14 10 9 14 25 33 32 28 27 26 22 16 11 6 2 1 0 0 0 1 1 0 0 0 0 0 0 0 0 0
1 1 1 0 0 0 0 0 0 0 0 0 1 3 6 9 11 16 20 16 10 8 15 27 35 33 29 23 17 13 9 6 3 1 0 0 1 1 1 1 0 0 0 0 0 0 0 0 0
0 0 0 0 0 0 0 0 0 0 0 0 1 6 15 23 26 26 22 13 5 6 16 28 31 28 25 18 10 6 5 4 2 1 1 1 1 1 1 0 0 0 0 0 0 0 0 0 0
0 0 0 0 0 0 0 0 0 0 0 0 1 9 27 44 45 36 26 15 7 6 17 27 25 21 18 13 7 3 2 2 2 2 1 1 1 0 0 0 0 0 0 0 0 0 0 0 0
0 0 0 0 0 0 0 0 0 0 0 0 2 11 37 64 67 54 41 29 17 12 18 23 22 18 12 8 5 3 2 2 2 2 1 1 0 0 0 0 0 0 0 0 0 0 0 0 0
0 0 0 0 0 0 0 0 0 0 0 1 6 21 52 81 87 77 66 53 38 27 25 24 24 19 11 5 4 3 3 2 1 1 0 0 0 0 0 0 0 0 0 0 0 0 0 0 0
0 0 0 0 0 0 0 0 0 0 1 4 16 41 74 93 95 89 83 73 60 47 38 34 31 26 16 9 7 5 3 2 0 0 0 1 1 0 0 1 0 0 0 0 0 0 0 0 0
0 0 0 0 0 0 0 0 0 0 2 6 24 57 86 96 94 90 86 79 70 58 50 45 41 33 23 16 11 7 5 4 2 1 2 3 2 0 0 0 0 0 0 0 0 0 0 0 0
0 0 0 0 0 0 0 0 0 2 4 8 27 60 85 92 90 87 83 77 70 61 56 53 48 39 30 22 16 10 8 7 4 3 3 3 2 0 0 0 0 0 0 0 0 0 0 0 0
0 0 0 0 0 0 0 0 1 3 5 11 27 56 79 87 87 86 81 76 70 64 59 55 50 44 37 31 24 15 11 9 7 4 2 1 0 0 0 0 0 0 0 0 0 0 0 0 0
0 0 0 0 0 0 0 0 1 3 6 12 26 47 67 78 83 85 83 76 70 65 58 51 47 45 41 36 30 20 15 12 8 5 2 0 0 0 0 0 0 0 0 0 0 0 0 0 0
0 0 0 0 0 0 0 1 2 4 7 12 23 38 54 67 77 83 83 76 68 63 57 46 40 39 38 35 29 21 16 13 10 6 2 0 0 0 0 0 0 0 0 0 0 0 0 0 0
0 0 0 0 0 0 0 1 3 4 7 13 22 34 48 62 73 77 77 73 67 62 56 45 36 35 36 33 26 19 13 12 10 7 4 1 0 0 0 0 0 0 0 0 0 0 0 0 0
0 0 0 0 0 0 0 1 2 3 7 13 21 31 44 59 69 72 71 70 67 62 55 46 39 37 35 32 25 16 10 10 10 8 4 2 1 0 0 0 0 0 0 1 1 0 0 0 0
0 0 0 0 0 0 0 0 1 2 5 9 16 25 37 52 63 68 66 66 65 61 55 48 44 40 35 30 24 14 8 7 7 5 3 2 1 0 0 0 0 0 0 1 1 0 0 0 0
0 0 0 0 0 0 0 0 1 3 3 5 10 19 32 45 56 62 62 61 60 57 53 49 46 42 35 28 22 15 9 6 4 3 3 3 2 0 0 0 0 0 1 1 1 0 0 0 0
0 0 0 0 0 0 0 0 1 3 4 6 10 18 29 41 53 59 59 56 53 49 46 45 42 38 33 26 20 15 11 8 5 3 3 2 1 0 0 0 0 0 1 0 0 0 1 0 0
0 0 0 0 0 0 0 0 1 2 4 8 13 19 25 35 48 56 58 53 47 41 39 37 36 33 28 22 18 15 12 9 6 4 3 2 0 0 0 0 0 0 0 0 0 0 0 0 0
0 0 0 0 0 0 0 0 1 1 3 8 14 17 21 28 39 50 55 52 44 36 33 33 33 29 23 18 16 15 12 9 6 5 5 4 1 0 0 0 0 0 0 0 0 0 0 0 0
0 0 0 0 0 0 0 0 0 1 3 7 13 17 21 27 34 43 50 49 41 32 29 30 29 25 20 16 15 14 11 7 5 5 6 5 4 2 0 0 1 1 0 0 0 0 0 0 0
0 0 0 0 0 0 0 0 0 0 2 6 12 17 22 28 33 37 42 43 38 32 28 26 24 20 16 15 15 14 11 8 6 5 4 5 5 4 1 1 3 3 2 1 0 0 0 1 1
0 0 0 0 0 0 0 0 0 0 1 4 11 16 20 25 30 32 35 36 34 32 28 23 19 17 14 13 13 14 13 10 7 5 4 4 5 4 2 2 3 4 3 2 1 1 1 1 0
0 0 0 0 0 0 0 0 0 0 1 4 10 15 19 23 25 25 27 28 28 28 25 21 17 15 14 14 13 13 12 10 9 7 5 5 5 3 2 1 3 4 3 1 2 3 2 0 0
0 0 0 0 0 0 0 0 0 1 2 5 9 12 16 19 19 19 20 21 21 22 22 20 16 15 15 16 14 12 10 9 8 7 6 5 4 3 1 1 2 3 3 2 2 3 2 0 0
0 0 0 0 0 0 0 0 1 2 4 5 6 8 12 15 15 14 16 17 17 19 21 20 17 14 14 14 12 11 10 9 8 7 5 4 3 3 2 2 2 4 6 5 3 3 2 1 1
0 0 0 0 0 0 0 0 1 3 5 5 6 8 12 15 14 13 14 16 17 19 22 23 19 14 11 9 8 9 10 9 7 5 4 3 2 2 2 2 3 6 9 9 7 5 3 3 2
0 0 0 0 0 0 0 0 1 2 4 5 7 11 14 16 16 15 14 15 16 19 22 23 20 14 10 7 6 9 10 9 7 4 2 2 2 1 1 2 5 6 8 10 9 6 4 3 3

GEFSSGP_con_prob3kmehi_144.txt.gz
EHI
4 12 24 29 21 8 1 0 0 0 0 0 0 0 0 0 0 3 17 37 38 20 11 12 11 7 6 5 3 1 1 0 0 0 0 0 0 0 0 0 0 0 0 0 0 0 0 0 0
4 11 19 20 13 4 0 0 0 0 0 0 0 0 0 0 1 7 23 38 33 16 9 12 13 10 7 6 4 1 0 0 0 0 0 0 0 0 0 0 0 0 0 0 0 0 0 0 0
3 7 10 8 4 1 0 0 0 0 0 0 0 0 0 1 4 14 29 39 30 17 14 17 16 14 11 8 5 2 0 0 0 0 0 0 0 0 0 0 0 0 0 0 0 0 0 1 1
4 4 4 2 1 0 0 0 0 0 0 0 1 2 3 6 12 20 31 38 33 25 23 22 20 16 13 9 6 2 1 0 0 0 0 0 0 0 0 0 0 0 0 0 0 0 1 2 2
5 4 2 1 0 0 0 0 0 0 0 1 5 8 9 12 18 22 27 33 36 35 31 28 25 19 12 8 5 3 2 1 0 0 0 0 0 0 0 0 0 0 0 0 0 0 1 2 2
3 2 1 0 0 0 0 0 0 0 0 3 10 15 15 17 19 20 23 28 38 45 41 34 30 21 11 7 5 4 3 2 1 0 0 0 0 0 0 0 0 0 0 0 0 0 0 1 1
2 1 0 0 0 0 0 0 0 0 0 3 11 19 22 22 21 20 22 27 42 55 49 34 27 20 11 7 6 4 3 2 1 0 0 0 0 0 0 0 0 0 0 0 0 0 0 0 0
1 0 0 0 0 0 0 0 0 0 0 2 9 22 32 35 32 28 28 33 49 59 47 30 22 16 9 7 5 3 2 2 1 0 0 0 0 0 0 0 0 0 0 0 0 0 0 0 0
0 0 0 0 0 0 0 0 0 1 1 4 13 29 45 50 47 42 40 45 58 61 48 32 24 17 10 8 6 3 1 1 0 0 0 0 0 0 0 0 0 0 0 0 0 0 0 0 0
0 0 0 0 0 0 0 0 0 2 4 11 25 43 57 60 58 54 53 59 67 67 55 42 33 23 17 15 10 4 3 2 1 0 0 0 0 0 1 1 0 0 0 0 0 0 0 0 0
0 0 0 0 0 0 0 0 1 3 7 16 34 55 67 68 65 60 61 69 76 74 63 55 47 35 29 27 17 8 5 3 1 1 0 0 0 1 2 1 0 0 0 0 0 0 0 0 0
0 0 0 0 0 0 0 1 2 3 9 20 37 59 74 76 70 67 70 78 83 78 69 66 62 52 46 40 27 14 8 4 4 5 3 1 1 1 2 2 1 1 0 0 0 0 0 0 0
0 0 0 0 0 0 0 1 3 5 10 21 35 55 72 79 79 78 80 86 86 80 75 76 73 65 61 54 38 24 16 10 9 11 8 4 3 5 6 5 3 2 2 2 1 0 0 0 0
0 0 0 0 0 0 0 1 3 6 11 18 30 47 64 79 86 88 89 90 88 83 79 80 77 70 68 62 47 32 22 17 16 17 14 8 8 13 13 8 4 4 5 5 3 1 0 0 0
0 0 0 0 0 0 1 2 5 8 11 15 24 40 60 78 89 92 92 91 88 84 81 79 76 70 67 63 51 36 25 20 23 25 21 14 15 19 15 7 4 6 8 8 5 2 1 0 0
0 0 0 0 0 0 1 3 6 7 9 12 20 38 60 78 88 92 92 90 87 84 81 77 71 66 63 60 52 38 27 27 32 33 27 21 20 21 16 9 7 8 8 6 4 2 1 1 1
0 0 0 0 0 0 1 4 6 5 6 10 19 39 62 78 87 90 90 89 86 83 80 74 68 63 60 58 51 38 31 35 39 35 30 25 23 21 18 14 12 10 6 3 3 2 2 2 2
0 0 0 0 0 0 1 3 4 3 4 10 23 42 63 78 87 90 89 87 84 81 77 72 68 63 58 55 47 36 33 36 35 31 29 26 22 20 17 15 13 11 6 3 4 4 3 2 2
0 0 0 0 0 0 0 1 1 2 4 12 28 46 63 79 88 90 88 85 84 80 75 72 68 63 59 51 43 38 35 34 30 27 26 23 19 16 14 12 14 14 12 8 6 5 4 2 2
0 0 0 0 0 0 0 0 1 1 4 13 29 46 62 77 88 89 87 85 83 80 75 72 68 64 57 48 41 39 38 34 27 26 25 20 15 13 12 13 16 17 15 12 7 5 4 3 3
0 0 0 0 0 0 0 1 2 2 4 11 24 40 55 71 84 87 84 82 79 75 73 72 70 64 56 46 39 35 34 29 24 25 26 21 15 13 14 16 18 18 15 11 7 5 4 4 3
0 0 0 0 0 0 0 1 4 4 3 7 16 30 46 64 78 84 82 78 72 68 68 69 68 62 55 46 38 32 26 21 19 23 26 22 15 13 15 17 19 19 15 10 7 6 5 4 3
0 0 0 0 0 0 0 1 4 4 3 6 12 24 40 58 73 81 81 76 68 63 62 64 63 57 51 44 39 33 24 18 18 21 23 20 15 12 14 18 22 22 19 14 10 8 6 4 3
0 0 0 0 0 0 0 1 2 3 3 6 13 23 37 53 68 80 81 75 67 60 57 57 56 52 46 41 36 29 24 20 17 17 18 17 15 13 13 18 24 25 23 21 17 11 7 5 5
0 0 0 0 0 0 0 1 2 3 4 9 18 27 37 50 65 76 76 70 63 58 55 54 53 48 43 40 32 24 21 19 15 14 15 15 14 13 13 19 26 25 23 24 22 16 10 7 7
0 0 0 0 0 0 0 1 2 4 7 13 23 32 40 51 62 68 66 60 55 53 55 56 52 46 40 36 30 24 20 19 16 15 16 15 12 13 17 25 29 27 21 21 23 21 16 12 11
0 0 0 0 0 0 0 1 3 7 12 16 23 31 40 50 56 58 56 50 46 50 55 56 50 43 37 31 26 22 21 22 20 17 15 16 15 15 23 30 32 30 24 23 25 24 21 18 17
0 0 0 0 0 0 0 2 5 11 15 16 18 26 37 44 48 51 51 46 44 48 53 53 48 41 34 26 19 16 19 22 20 16 15 18 19 20 24 29 31 30 29 27 27 24 21 20 20
0 0 0 0 0 0 0 2 6 12 15 15 16 25 35 41 45 49 50 46 44 46 48 49 48 41 32 24 17 13 15 18 18 15 16 20 22 20 21 25 27 28 28 28 25 20 17 17 18
0 0 0 0 0 0 0 2 5 10 14 15 17 26 36 42 46 48 48 48 45 43 44 47 48 42 32 24 17 14 15 17 17 15 17 22 22 19 18 19 22 24 26 27 23 17 14 14 15

GEFSSGP_con_prob3kmehi_150.txt.gz
EHI
0 0 0 0 0 0 0 0 0 0 0 0 0 1 0 0 0 0 1 14 37 42 29 27 30 27 18 10 4 1 0 0 1 1 1 0 0 0 0 0 0 0 0 0 0 0 0 0 0
0 0 0 0 0 0 0 0 0 0 1 1 1 1 0 1 1 1 4 20 42 45 31 28 34 31 21 12 5 1 0 0 0 0 0 0 0 0 0 0 0 0 0 0 0 0 0 0 0
0 0 0 0 0 0 0 0 0 1 2 2 1 0 0 2 4 5 11 30 47 45 33 31 37 35 26 16 7 2 1 0 0 0 0 0 0 0 0 0 0 0 0 0 0 0 0 0 0
1 1 1 0 1 0 0 0 1 2 2 2 1 0 0 5 12 15 23 39 50 44 32 32 38 36 28 19 10 4 2 1 0 0 0 0 0 0 0 0 0 0 0 0 0 0 0 0 0
1 1 1 0 0 0 0 1 3 6 6 4 2 1 2 12 25 29 31 43 52 45 34 33 37 36 29 22 14 7 3 2 1 0 0 0 0 0 0 0 0 0 0 0 0 0 0 0 0
0 0 0 0 0 0 0 2 7 10 9 7 5 2 6 22 35 35 35 42 49 47 39 37 38 35 30 24 16 8 3 2 1 0 0 0 0 0 0 0 0 0 0 0 0 0 0 0 0
0 0 0 0 0 0 0 3 8 10 9 9 8 5 10 28 40 39 37 41 44 45 44 40 34 29 25 21 15 9 4 1 0 0 0 0 0 0 0 0 0 0 0 0 0 0 0 0 0
0 0 0 0 0 0 1 3 7 8 8 9 9 9 17 36 50 52 50 47 43 42 43 38 29 22 17 15 12 9 5 2 0 0 0 0 0 0 0 0 0 0 0 0 0 0 1 1 1
0 0 0 0 0 0 1 4 6 8 10 11 12 15 28 50 67 72 69 60 50 44 39 34 27 21 17 13 10 7 4 1 0 0 0 0 0 0 0 0 0 0 0 0 0 0 1 1 1
0 0 0 0 0 0 2 4 5 8 15 19 21 26 40 60 77 84 81 71 60 48 38 30 27 23 18 14 9 5 2 0 0 0 0 0 0 0 0 0 0 0 0 0 0 0 0 0 0
0 0 0 0 0 1 2 3 3 7 16 24 30 36 47 63 79 85 83 76 65 52 39 31 26 22 16 12 9 3 0 0 0 0 0 0 0 0 0 0 0 0 0 0 0 0 0 0 0
0 0 0 0 0 1 3 3 3 6 14 25 33 40 48 59 71 79 81 78 67 54 42 33 26 19 14 11 7 3 0 0 0 0 0 0 0 0 0 0 0 0 0 0 0 0 0 0 0
0 0 0 0 1 3 4 6 6 9 19 28 34 39 44 50 59 69 76 76 68 58 48 38 28 20 15 11 7 3 1 1 0 0 0 0 0 0 0 0 0 0 0 0 0 0 0 0 0
0 0 0 0 2 4 6 9 12 17 27 34 35 36 39 45 53 63 72 75 71 65 58 47 34 27 20 13 8 4 2 1 0 0 0 0 0 0 0 0 0 0 0 0 0 0 0 0 0
0 0 0 0 1 2 5 10 15 23 32 38 38 38 41 47 54 62 72 77 75 72 67 57 45 36 29 18 10 6 3 2 1 0 0 0 0 0 0 0 0 0 0 0 0 0 0 0 0
0 0 0 0 0 0 2 8 16 25 35 40 41 44 47 51 57 64 74 79 78 75 71 63 54 46 35 24 13 7 5 3 2 1 0 0 0 0 0 0 0 0 0 0 0 0 0 0 0
0 0 0 0 0 0 1 7 16 27 37 44 46 49 54 59 64 69 76 79 78 75 71 65 59 52 39 26 15 8 5 6 5 3 1 1 1 1 1 0 0 0 0 0 0 0 0 0 0
0 0 0 0 0 0 2 8 17 27 39 49 55 59 62 66 70 74 78 79 76 71 68 64 60 53 41 28 17 9 6 7 7 6 3 2 3 3 2 1 0 0 0 0 0 0 0 0 0
0 0 0 0 0 0 2 8 17 27 38 51 63 69 70 71 73 76 78 77 72 69 66 61 57 51 41 29 19 12 7 5 4 5 4 3 3 3 3 2 0 0 0 0 0 0 0 0 0
0 0 0 0 0 1 3 7 15 25 36 51 64 70 71 73 75 77 77 74 71 68 65 60 54 47 38 27 17 10 5 2 1 2 2 3 3 2 1 1 0 0 0 0 0 0 0 0 0
0 0 0 0 0 1 2 4 10 19 33 47 59 65 68 72 75 76 73 70 68 66 62 57 50 42 33 23 14 8 5 3 1 1 1 1 2 1 0 0 0 0 0 0 0 0 0 0 0
0 0 0 0 0 0 1 1 4 13 28 41 51 58 64 69 72 73 71 67 64 62 58 51 45 38 30 22 15 9 5 4 3 2 1 0 1 1 0 0 0 0 0 0 0 0 0 0 0
0 0 0 0 0 0 0 0 2 9 21 33 43 53 61 65 69 71 68 63 60 59 56 49 42 34 28 22 15 8 5 4 4 3 2 1 0 0 0 0 0 0 0 0 0 0 0 0 0
0 0 0 0 0 0 0 0 1 5 15 26 39 50 58 64 69 70 65 59 56 56 54 49 40 32 26 22 14 8 5 4 4 4 3 2 0 0 0 0 0 0 0 0 0 0 0 0 0
0 0 0 0 0 0 0 0 0 4 14 27 41 51 59 65 68 66 59 54 53 52 50 47 39 31 26 21 15 9 6 5 5 3 2 1 0 0 1 1 1 0 0 0 0 0 0 0 0
0 0 0 0 0 0 0 0 2 8 19 34 47 54 59 62 61 56 51 50 50 48 46 42 37 31 26 19 13 8 5 5 4 2 1 1 0 0 1 1 1 0 0 0 0 0 0 0 0
0 0 0 0 0 0 0 1 5 15 26 38 48 52 54 54 52 47 45 46 46 43 41 36 31 28 23 16 8 4 3 3 3 2 2 1 1 0 0 1 1 1 1 1 0 0 0 0 0
0 0 0 0 0 0 0 1 6 16 26 35 41 46 49 49 45 40 39 39 37 36 35 31 27 23 19 13 7 3 1 2 3 3 3 2 1 0 0 0 1 2 2 2 1 1 0 0 0
0 0 0 0 0 0 0 0 4 13 22 28 34 41 47 47 41 36 34 32 30 31 30 27 23 18 14 11 7 4 2 3 4 3 2 1 1 1 0 0 0 1 3 3 3 2 1 1 1
0 0 0 0 0 0 0 0 4 11 18 23 30 40 47 46 39 34 32 31 29 30 29 25 20 16 11 8 7 6 4 4 4 3 1 1 2 2 1 0 0 1 2 3 3 3 2 2 2

GEFSSGP_con_prob3kmehi_156.txt.gz
EHI
1 1 0 0 0 0 0 0 0 0 0 0 1 1 1 0 0 0 0 2 8 10 5 4 7 7 5 5 5 4 4 3 2 2 1 0 0 0 0 0 0 0 0 0 0 0 0 0 0
1 0 0 0 0 0 0 0 0 0 0 0 0 0 0 0 0 0 0 5 14 16 8 6 10 10 7 5 4 4 4 3 3 2 1 0 0 0 0 0 0 0 0 0 0 0 0 0 0
0 0 0 0 0 0 0 0 0 0 0 0 0 0 0 0 0 0 2 12 24 22 12 10 14 15 12 7 5 4 4 4 3 2 1 0 0 0 0 0 0 0 0 0 0 0 0 0 0
0 0 0 0 0 0 0 0 0 0 0 0 0 0 0 0 1 3 9 23 33 28 17 15 19 20 16 10 6 4 3 3 2 1 0 0 0 0 0 0 0 0 0 0 0 0 0 0 0
0 0 0 0 0 0 0 0 0 0 1 1 1 0 0 1 3 10 19 30 37 33 24 19 22 23 19 13 8 5 2 1 1 1 0 0 0 0 0 0 0 0 0 0 0 0 0 0 0
0 0 0 0 0 0 0 0 1 1 1 2 1 0 0 1 7 17 27 33 36 36 29 23 22 22 20 16 11 7 3 1 0 1 1 0 0 0 0 0 0 0 0 0 0 0 0 0 0
0 0 0 0 0 0 0 0 1 2 2 2 1 0 1 3 10 23 32 34 34 33 29 24 19 18 17 15 11 7 4 1 0 1 1 0 0 0 0 0 0 0 0 0 0 0 0 0 0
0 0 0 0 0 0 0 0 1 3 4 2 1 1 4 10 18 30 38 36 31 27 23 19 15 13 12 11 9 7 4 2 0 0 1 0 0 0 0 0 0 0 0 0 0 0 0 0 0
0 0 0 0 0 0 0 0 1 4 5 3 2 5 17 29 36 41 43 39 33 28 20 14 12 11 10 8 6 5 4 1 0 0 1 0 0 0 0 0 0 0 0 0 0 0 0 0 0
0 0 0 0 0 0 0 1 2 4 6 5 7 20 40 50 49 45 42 38 36 32 24 15 13 13 12 8 5 3 2 0 0 0 0 0 0 0 0 0 0 0 0 0 0 0 0 0 0
0 0 0 0 0 1 2 2 3 4 5 7 18 40 59 60 50 41 34 31 31 30 25 19 17 17 14 9 5 3 1 0 0 0 0 0 0 0 0 0 0 0 0 0 0 0 0 0 0
0 0 0 0 1 2 3 4 5 4 4 11 31 55 64 59 46 33 26 23 23 25 23 21 20 19 14 9 7 4 1 0 0 0 0 0 0 0 0 0 0 0 0 0 0 0 0 0 0
0 0 0 1 2 4 5 6 6 5 5 15 38 59 63 56 44 30 23 20 19 21 22 24 23 18 13 10 9 5 1 0 0 0 0 0 0 0 0 0 0 0 0 0 0 0 0 0 0
0 0 0 1 2 4 7 7 5 7 10 21 40 56 58 53 45 36 29 25 21 18 20 24 24 18 12 11 9 5 1 0 0 0 0 0 0 0 0 0 0 0 0 0 0 0 0 0 0
0 0 0 0 1 3 5 5 5 9 16 26 37 46 49 47 44 41 38 32 23 17 16 20 22 18 12 10 7 3 1 1 1 0 0 0 0 0 0 0 0 0 0 0 0 0 0 0 0
0 0 0 0 0 1 2 3 5 11 19 26 32 35 36 37 37 38 41 37 28 20 17 18 20 17 12 8 4 2 1 0 0 0 0 0 0 0 0 0 0 0 0 0 0 0 0 0 0
0 0 0 0 0 0 0 2 5 11 19 27 29 29 28 28 28 31 39 42 36 29 24 22 20 15 10 6 3 1 0 0 0 0 0 0 0 0 0 0 0 0 0 0 0 0 0 0 0
0 0 0 0 0 0 1 3 6 11 19 26 28 27 26 25 25 28 37 45 45 39 34 29 23 16 9 5 2 0 0 0 0 0 0 0 0 0 0 0 0 0 0 0 0 0 0 0 0
0 0 0 0 0 0 1 3 7 12 18 23 25 26 26 27 28 30 38 46 48 44 39 36 29 20 11 7 3 1 0 0 0 0 0 0 0 0 0 0 0 0 0 0 0 0 0 0 0
0 0 0 0 0 0 1 2 5 10 15 20 23 25 29 32 34 37 43 48 49 45 40 37 32 24 16 10 6 3 0 0 0 0 0 0 0 0 0 1 0 0 0 0 0 0 0 0 0
0 0 0 0 0 0 0 1 2 6 12 18 22 26 31 38 42 45 49 50 48 44 39 35 32 26 18 12 8 4 1 1 1 1 1 0 0 1 1 1 0 0 0 0 0 0 0 0 0
0 0 0 0 0 0 0 0 1 3 8 15 22 28 33 38 45 49 50 48 46 41 37 34 31 26 19 14 10 6 3 2 2 2 1 0 0 1 1 0 0 0 0 0 0 0 0 0 0
0 0 0 0 0 0 0 0 1 2 5 12 23 32 34 36 43 47 46 44 42 38 33 30 27 23 19 15 12 8 5 3 3 3 2 0 0 1 1 0 0 0 0 0 0 0 0 0 0
0 0 0 0 0 0 0 0 0 1 2 8 22 31 34 35 40 44 42 39 38 33 27 23 22 20 18 16 13 9 6 4 3 3 2 0 0 0 0 0 0 0 0 0 0 0 0 0 0
0 0 0 0 0 0 0 0 0 0 0 5 18 27 30 34 40 42 38 34 32 28 22 19 18 18 17 15 13 9 6 4 3 3 1 0 0 0 0 0 0 0 0 0 0 0 0 0 0
0 0 0 0 0 0 0 0 0 0 1 6 16 25 28 31 38 40 34 29 28 25 20 17 17 16 15 14 11 8 6 4 3 2 1 0 0 0 0 0 0 0 0 0 0 0 0 0 0
0 0 0 0 0 0 0 0 0 1 3 9 19 25 27 29 33 35 33 30 29 26 20 17 15 15 14 12 9 7 5 3 1 1 0 0 0 0 0 0 0 0 0 0 0 0 0 0 0
0 0 0 0 0 0 0 0 0 1 4 11 20 25 27 28 29 31 32 31 29 26 21 16 14 13 13 12 9 5 3 1 0 0 0 0 0 0 0 0 0 0 0 0 0 0 0 0 0
0 0 0 0 0 0 0 0 0 1 4 10 16 21 25 26 27 27 28 28 27 26 23 18 13 10 10 10 8 4 2 1 0 0 0 0 0 0 0 0 0 0 0 0 0 0 0 0 0
0 0 0 0 0 0 0 0 0 0 3 9 13 18 21 23 25 25 24 24 24 25 24 21 14 8 7 7 6 3 1 0 0 0 0 0 0 0 0 0 0 0 0 0 0 0 0 0 0

GEFSSGP_con_prob3kmehi_162.txt.gz
EHI
2 2 2 2 1 0 0 0 0 0 0 0 0 0 0 0 0 0 0 0 0 1 2 3 3 1 0 3 8 11 10 7 3 1 0 0 0 0 0 0 0 0 0 0 0 0 0 0 0
2 1 1 1 0 0 0 0 0 0 0 0 0 0 0 0 0 0 0 0 0 0 1 4 6 4 2 3 6 8 7 4 1 0 0 0 0 0 0 0 0 0 0 0 0 0 0 0 0
2 2 1 0 0 0 0 0 1 1 0 0 0 0 0 0 0 0 0 0 0 0 2 6 9 7 4 3 4 4 3 1 0 0 0 0 0 0 0 0 0 0 0 0 0 1 0 0 0
3 2 1 0 0 0 0 1 2 2 1 0 0 0 0 0 0 0 0 0 0 0 3 7 10 9 6 4 3 3 2 1 0 0 0 0 0 0 0 0 0 0 0 0 0 0 0 0 0
2 1 0 0 0 0 0 1 2 2 2 1 0 1 2 1 1 1 1 1 0 0 3 8 11 8 6 4 4 3 2 1 0 0 0 0 0 0 0 0 0 0 0 0 0 0 0 0 0
1 0 0 0 0 0 0 0 1 2 2 1 0 1 4 4 3 2 2 1 0 0 3 9 10 7 4 4 4 3 1 0 0 0 0 0 0 0 0 0 0 0 0 0 0 0 0 0 0
0 0 0 0 0 0 0 0 1 2 2 1 0 1 6 9 7 3 1 0 0 0 3 6 7 4 3 3 4 3 1 0 0 0 0 0 0 0 0 0 0 0 0 0 0 0 0 0 0
0 0 0 0 0 0 0 0 0 1 2 1 0 2 11 21 17 8 4 2 1 1 2 3 3 2 1 1 2 2 1 1 2 1 0 0 0 1 0 0 0 0 0 0 0 0 0 0 0
0 0 0 0 0 0 0 0 0 2 3 3 2 7 22 37 32 18 12 8 6 5 5 3 1 0 0 0 1 1 1 1 2 2 1 0 0 0 0 0 0 0 0 0 0 0 0 0 0
0 0 0 0 0 0 0 0 1 3 4 6 12 24 42 51 42 29 21 17 15 13 9 6 3 2 1 1 0 0 0 1 1 1 1 0 0 0 0 0 0 0 0 0 0 0 0 0 0
0 0 0 0 0 0 0 1 1 2 3 8 23 45 60 59 47 34 25 22 21 19 15 10 7 7 5 3 1 0 0 0 0 0 0 0 0 0 0 0 0 0 0 0 0 0 0 0 0
0 0 0 0 0 0 1 2 2 1 2 9 29 54 66 60 46 33 24 22 24 24 21 15 13 13 12 7 2 1 0 0 0 0 0 0 0 0 1 1 0 0 0 0 0 0 0 0 0
0 0 0 0 0 0 1 3 3 2 3 9 29 52 60 54 44 32 25 25 28 29 26 21 19 21 19 12 6 3 2 1 0 0 0 0 0 0 1 2 1 0 0 0 0 0 0 0 0
0 0 0 0 0 0 2 3 3 4 5 10 26 43 49 47 44 37 31 30 32 32 31 29 27 27 26 19 10 5 3 2 0 0 0 0 0 0 1 2 2 1 0 0 0 0 0 0 0
0 0 0 0 0 0 1 2 4 5 6 11 22 35 43 45 42 38 34 32 31 34 36 34 31 32 32 25 13 6 3 2 0 0 0 0 0 0 0 1 2 2 1 0 0 0 0 0 0
0 0 0 0 0 0 0 2 4 4 5 10 20 32 43 45 40 33 31 30 31 36 40 37 32 33 34 27 16 8 4 1 0 0 0 0 0 0 0 0 1 2 1 0 0 0 0 0 0
0 0 0 0 0 0 0 2 4 4 4 8 17 30 44 49 43 36 33 33 34 38 43 41 35 34 33 26 17 9 4 1 0 0 0 1 0 0 0 0 1 1 1 0 0 0 0 0 0
0 0 0 0 0 0 0 2 5 5 4 6 13 25 40 48 47 44 41 39 40 42 45 45 42 39 35 28 19 11 6 3 1 0 1 2 1 0 0 0 0 0 0 0 0 0 0 0 0
0 0 0 0 0 0 0 2 5 6 4 5 11 21 34 42 48 51 50 46 47 49 50 50 49 46 41 35 25 16 9 4 2 1 3 4 2 1 0 0 0 0 0 0 0 0 0 0 0
0 0 0 0 0 0 0 1 4 5 4 5 9 18 28 38 47 54 57 56 56 57 54 51 50 48 44 38 29 19 10 5 3 4 7 6 4 2 1 0 0 0 0 0 0 0 0 0 1
0 0 0 0 0 0 0 1 3 4 4 6 9 15 24 34 44 53 61 63 62 58 51 45 45 44 40 36 30 22 13 7 5 8 11 9 5 3 2 0 0 0 0 0 0 0 0 1 2
0 0 0 0 0 0 0 1 2 3 3 6 11 16 23 32 41 49 59 63 59 52 45 41 41 40 38 34 30 24 17 11 8 10 11 9 5 3 1 1 1 1 0 0 0 0 0 1 2
0 0 0 0 0 0 0 0 1 2 2 4 9 16 23 32 39 46 53 57 52 43 37 36 38 39 36 31 28 24 19 13 10 10 9 8 6 4 2 2 2 1 0 0 0 0 0 1 2
0 0 0 0 0 0 0 0 0 1 1 2 4 12 23 32 38 44 49 52 48 38 32 32 36 38 34 30 26 24 20 15 12 10 8 7 7 6 4 2 2 1 0 0 0 0 0 0 1
0 0 0 0 0 0 0 0 0 0 0 1 3 10 23 34 39 43 47 48 45 37 32 32 35 35 32 28 25 23 21 16 12 9 7 7 7 6 4 1 1 1 0 0 1 1 1 1 1
0 0 0 0 0 0 0 0 0 0 0 1 4 13 27 38 42 43 44 44 42 39 36 34 35 33 29 26 23 21 19 14 9 7 6 5 5 5 3 1 1 1 1 2 2 1 1 1 2
0 0 0 0 0 0 0 0 1 0 0 2 7 16 29 41 45 43 42 41 41 41 40 37 35 32 26 23 21 18 14 10 6 5 5 4 4 4 3 3 2 1 2 2 2 1 1 2 2
0 0 0 0 0 0 0 0 0 0 1 4 9 16 30 43 46 44 43 41 39 40 42 41 36 31 26 22 19 14 9 6 4 3 4 4 4 4 4 4 3 1 1 2 2 1 1 2 3
0 0 0 0 0 0 0 0 0 1 3 7 10 17 32 45 47 45 43 42 40 40 43 43 38 32 27 23 20 14 8 5 2 3 4 5 3 2 3 3 3 1 1 2 3 2 1 1 1
0 0 0 0 0 0 0 0 0 1 4 8 12 21 37 47 47 43 42 42 42 43 44 42 38 33 28 24 20 17 11 5 3 4 5 4 2 1 1 3 2 1 2 3 3 2 1 0 0

GEFSSGP_con_prob3kmehi_168.txt.gz
EHI
5 14 28 33 20 5 0 0 0 0 0 0 0 0 0 0 0 0 2 6 8 4 1 0 0 1 1 1 1 0 0 0 0 0 0 0 0 0 0 0 0 0 0 0 0 0 0 0 0
4 13 23 23 12 3 0 0 0 0 0 0 0 0 0 0 0 0 2 5 6 4 1 1 1 2 2 1 0 0 0 0 0 0 0 0 0 0 0 0 0 0 0 0 0 0 0 0 0
6 11 14 11 4 0 0 0 0 0 0 0 0 0 0 0 0 0 2 5 6 5 4 2 2 2 1 0 0 0 0 0 0 0 0 0 0 0 0 0 0 0 0 0 0 0 0 0 0
8 9 7 3 1 0 0 0 0 0 0 0 0 0 0 0 0 0 2 5 8 9 7 4 3 2 1 1 1 1 0 0 0 0 0 0 0 0 0 0 0 0 0 0 0 0 0 0 0
7 6 3 1 0 0 0 0 0 0 0 0 1 2 2 1 1 0 1 5 10 14 11 7 5 4 3 3 2 2 1 0 0 0 0 0 0 0 0 0 0 0 0 0 0 0 0 0 0
4 3 1 0 0 0 0 0 0 0 0 0 2 4 4 3 2 0 1 5 13 20 16 9 8 8 6 4 3 3 1 0 0 0 0 0 0 0 0 0 0 0 0 0 0 0 0 0 0
2 1 0 0 0 0 0 0 0 0 0 0 3 6 8 6 3 0 1 6 15 22 19 11 8 9 7 4 3 3 2 1 0 0 0 0 0 0 0 0 0 0 0 0 0 0 0 0 0
2 1 0 0 0 0 0 0 1 1 0 0 4 10 13 11 5 1 2 6 14 21 19 14 10 9 8 6 4 3 2 1 0 0 0 0 0 1 0 0 0 0 0 0 0 0 0 0 1
1 0 0 0 0 0 0 1 2 2 1 2 8 15 20 16 9 6 6 9 15 20 19 18 15 10 8 7 5 3 2 1 1 1 1 2 1 1 1 1 1 0 0 0 0 0 0 0 1
0 0 0 0 0 0 0 1 2 2 3 9 18 25 26 22 16 13 14 18 22 22 21 23 19 11 8 8 6 4 3 3 1 2 3 4 3 1 2 3 2 0 0 0 0 0 0 0 1
0 0 0 0 0 0 0 0 1 2 6 18 31 35 32 29 24 20 22 27 28 24 24 27 25 15 9 9 6 5 5 4 3 2 3 3 2 1 1 2 1 0 0 0 0 0 1 0 0
0 0 0 0 0 0 0 0 0 2 9 23 35 41 39 36 30 25 29 37 36 29 28 35 36 26 16 12 8 6 8 7 6 5 3 2 1 0 1 2 1 0 0 0 0 0 0 0 1
0 0 0 0 0 0 0 1 1 4 12 24 36 42 44 41 37 35 41 51 50 40 37 44 46 37 26 17 11 10 11 10 10 9 6 3 2 2 3 4 3 1 1 2 1 1 1 1 1
0 0 0 0 0 0 0 1 3 8 15 23 33 41 44 47 49 50 56 62 61 54 51 53 54 47 35 23 16 14 13 12 14 15 12 8 7 7 5 4 3 2 2 2 3 3 3 2 1
0 0 0 0 0 0 0 1 5 11 16 21 30 41 49 54 58 62 66 68 66 64 64 61 59 54 43 30 21 16 14 14 16 19 19 16 13 10 7 4 2 2 3 3 3 4 3 2 2
0 0 0 0 0 0 0 0 3 9 16 20 29 44 58 65 66 68 71 71 72 74 73 67 61 59 52 39 26 20 18 20 20 19 21 20 16 12 7 4 2 2 4 4 3 3 3 3 3
0 0 0 0 0 0 0 1 2 5 14 21 30 48 67 74 74 74 74 74 77 80 80 71 63 62 58 46 34 25 24 27 24 20 21 21 18 12 7 5 4 4 4 3 2 3 4 4 2
0 0 0 0 0 0 1 3 3 4 11 21 33 51 69 78 81 81 79 78 80 83 83 75 66 64 60 51 41 32 29 28 25 23 22 22 19 13 8 7 8 7 4 3 2 4 5 4 2
0 0 0 0 0 0 1 3 4 5 10 21 35 53 69 79 85 87 85 83 82 84 84 79 71 67 63 57 48 41 35 28 23 24 25 24 20 14 9 8 11 10 6 4 4 5 6 4 5
0 0 0 0 0 0 1 3 5 7 11 20 35 53 69 80 87 89 88 85 83 84 84 81 76 71 66 61 54 47 40 31 23 24 28 27 21 16 11 10 10 10 7 5 7 9 7 5 6
0 0 0 0 0 0 0 2 6 9 12 18 30 46 64 78 85 86 85 84 82 82 82 81 78 74 69 63 55 49 44 34 26 26 30 29 23 19 16 14 10 7 5 5 8 10 8 6 6
0 0 0 0 0 0 0 2 6 10 12 16 24 36 53 71 80 82 81 80 78 77 79 81 80 76 70 62 55 50 46 36 28 27 29 28 24 19 18 17 15 10 6 5 6 8 9 8 6
0 0 0 0 0 0 0 1 5 8 11 16 22 33 48 64 75 79 79 77 74 73 74 78 79 75 69 62 54 48 43 35 28 24 25 25 20 16 15 16 18 16 11 8 7 9 11 9 6
0 0 0 0 0 0 0 0 2 6 11 16 24 33 44 57 70 76 78 76 73 71 71 73 74 72 67 60 52 46 39 33 27 22 21 20 15 11 10 12 16 17 13 10 11 13 12 8 5
0 0 0 0 0 0 0 0 1 4 10 16 23 32 39 51 65 75 78 77 73 69 68 69 68 67 63 55 49 43 38 32 27 22 19 16 12 10 10 11 14 15 12 10 12 14 12 9 7
0 0 0 0 0 0 0 0 1 4 9 13 20 28 36 48 65 75 78 76 72 69 67 67 66 64 59 52 46 41 37 32 26 22 18 15 12 12 13 15 15 14 12 9 11 13 12 12 12
0 0 0 0 0 0 0 0 2 4 6 9 16 26 37 49 62 71 75 75 72 69 68 67 66 62 56 50 44 39 36 32 28 24 20 17 15 14 16 19 16 13 12 10 10 10 9 11 14
0 0 0 0 0 0 0 0 1 3 4 7 16 28 41 50 59 68 72 73 71 70 71 70 67 63 58 51 43 37 35 33 30 26 22 19 17 15 16 18 16 13 12 12 11 8 7 9 11
0 0 0 0 0 0 0 0 0 1 3 7 18 33 44 52 61 70 74 73 71 71 74 75 70 65 60 52 44 39 36 33 31 28 24 21 18 15 14 14 15 14 13 13 12 8 7 8 9
0 0 0 0 0 0 0 0 0 1 3 9 21 36 46 54 64 73 76 75 72 71 75 77 72 65 59 53 47 41 37 34 32 29 26 23 20 16 13 12 12 12 12 12 11 8 7 8 9

GEFSSGP_con_prob3kmehi_174.txt.gz
EHI
1 1 1 0 0 0 0 0 0 0 0 0 0 0 0 0 0 0 0 4 11 11 8 9 8 3 1 1 0 0 0 0 0 0 0 0 0 0 0 0 0 0 0 0 0 1 2 3 3
0 1 1 0 0 0 0 0 0 0 0 0 0 0 0 0 0 0 1 4 9 8 5 5 5 3 2 1 0 0 0 0 0 0 0 0 0 0 0 0 0 0 0 0 0 1 2 3 3
1 1 1 0 0 0 0 0 0 0 0 0 0 0 0 1 1 1 2 5 7 6 3 3 4 3 1 1 0 0 0 0 0 0 0 0 0 0 0 0 0 0 0 0 0 0 1 2 3
2 1 1 0 0 0 0 0 1 1 0 1 1 1 0 2 5 6 6 8 8 6 4 6 6 4 2 1 0 0 0 0 0 0 0 0 0 0 0 0 0 0 0 0 0 0 1 1 2
2 1 0 0 0 0 0 1 2 1 0 1 1 1 2 7 11 11 8 9 9 6 5 6 7 6 4 3 2 0 0 0 0 0 0 0 0 0 0 0 0 0 0 0 0 1 1 1 1
1 1 0 0 0 0 0 1 2 1 0 0 0 0 4 14 18 13 9 9 9 8 5 4 4 5 5 5 3 1 0 0 0 0 0 0 0 0 0 0 0 0 0 0 0 1 1 0 0
1 0 0 0 0 0 0 1 1 1 1 1 1 0 6 17 21 16 12 10 9 8 5 2 1 2 4 4 3 2 0 0 0 0 0 0 0 0 0 0 0 0 0 0 0 0 0 0 0
1 0 0 0 0 0 0 0 0 1 2 2 2 2 7 20 29 28 22 15 10 7 4 2 1 1 1 2 1 1 1 0 0 0 0 0 0 0 0 0 0 0 1 1 0 0 0 0 0
0 0 0 0 0 0 0 0 0 1 1 1 2 5 12 29 45 46 37 26 17 9 4 3 2 1 0 0 0 0 1 0 0 0 0 0 0 0 0 0 0 0 1 1 0 0 0 0 0
0 0 0 0 0 0 0 0 0 0 1 2 4 8 18 38 55 59 51 41 27 14 5 3 3 1 0 0 0 0 0 0 0 0 0 0 0 0 0 0 0 0 0 0 0 0 0 0 0
0 0 0 0 0 0 0 0 0 0 1 4 8 12 21 37 52 58 56 48 35 19 7 3 4 3 1 1 1 1 0 0 0 0 0 0 0 0 0 0 0 0 0 0 0 0 0 0 0
0 0 0 0 0 0 1 1 1 1 3 8 12 16 21 30 39 47 51 49 41 27 12 6 6 6 4 3 3 1 1 1 0 0 0 0 0 0 0 0 0 0 0 0 0 0 0 0 0
0 0 0 0 1 3 5 4 3 4 9 14 15 16 21 25 29 36 45 49 46 37 25 15 12 11 9 6 4 3 2 2 1 1 0 0 0 0 0 0 0 0 0 0 0 0 0 0 0
0 0 0 0 2 7 9 8 7 10 18 21 17 16 19 24 28 36 47 53 53 50 41 31 25 21 16 10 6 5 5 4 2 1 1 0 0 0 0 0 0 0 0 0 0 0 0 0 0
0 0 0 0 2 7 11 12 14 21 28 26 20 19 24 28 33 42 51 59 61 59 53 45 38 33 26 17 12 10 9 6 2 1 1 1 0 0 0 0 0 0 0 0 0 0 0 0 0
0 0 0 0 1 5 9 12 18 30 36 33 28 29 33 36 39 46 55 64 67 63 56 49 45 40 31 22 15 12 9 5 2 0 0 1 0 0 0 0 0 0 0 0 0 0 0 0 0
0 0 0 0 1 2 5 9 19 32 40 39 36 37 41 44 46 51 59 68 69 64 57 49 44 41 32 22 14 9 6 4 2 0 1 1 1 0 0 0 0 0 0 0 0 0 0 0 0
0 0 0 0 0 1 2 7 19 30 39 43 43 44 48 53 55 59 67 73 71 65 57 49 44 42 35 25 15 9 5 4 2 1 1 2 1 0 0 0 0 0 0 0 0 0 0 0 0
0 0 0 0 1 2 2 6 15 25 37 46 50 52 55 59 62 66 73 77 74 67 59 51 46 44 40 30 19 12 7 4 3 1 1 2 2 0 0 0 0 0 0 0 0 0 0 0 0
0 0 0 0 1 2 2 4 10 20 33 46 55 60 63 65 67 70 74 77 76 69 62 56 50 46 42 32 21 13 7 4 2 1 1 1 1 0 0 0 0 0 0 0 0 0 0 0 0
0 0 0 1 1 1 1 3 7 16 29 42 54 64 70 71 71 71 73 75 74 70 64 57 51 44 39 32 22 14 8 4 2 1 1 1 0 0 0 0 0 0 0 0 0 0 0 0 0
0 0 0 0 0 0 0 2 5 12 24 37 49 62 73 76 74 73 74 74 72 68 63 56 48 40 36 32 24 15 9 5 3 2 2 1 0 0 0 1 1 0 0 0 0 0 0 0 0
0 0 0 0 0 0 0 1 3 8 18 31 44 58 70 76 77 75 75 74 70 67 63 54 44 36 33 29 21 15 10 6 3 2 2 1 1 0 0 1 2 1 0 0 0 0 0 0 0
0 0 0 0 0 0 0 0 1 4 12 25 41 55 64 72 77 77 75 71 68 67 64 54 42 34 29 25 18 13 11 7 5 4 3 2 2 1 0 1 2 2 1 0 0 0 0 0 0
0 0 0 0 0 0 0 0 1 3 9 21 38 52 60 67 72 75 73 69 68 69 66 55 44 35 29 24 19 14 10 7 6 5 3 3 4 3 1 0 1 2 1 0 0 0 0 0 0
0 0 0 0 0 0 0 0 1 4 10 22 37 51 60 65 69 71 70 68 68 68 65 57 49 40 34 28 22 15 10 6 4 3 2 2 4 4 2 1 1 1 0 0 0 0 0 0 0
0 0 0 0 0 0 0 0 2 7 15 25 40 54 62 65 68 68 66 63 62 62 62 59 53 45 39 32 25 18 11 6 5 4 2 2 3 3 2 1 2 1 0 0 0 0 0 0 0
0 0 0 0 0 0 0 0 2 8 16 26 40 54 62 65 65 63 58 55 55 57 59 59 54 47 41 35 27 20 13 8 6 6 5 3 3 2 1 1 2 1 0 0 0 0 0 0 0
0 0 0 0 0 0 0 0 1 6 15 25 38 50 59 63 61 54 49 49 51 54 57 57 52 45 39 35 30 23 15 9 7 7 6 5 4 1 0 1 2 1 1 0 0 0 0 0 0
0 0 0 0 0 0 0 0 0 4 14 26 37 48 55 60 57 51 47 48 51 54 56 55 50 42 36 33 32 26 17 11 9 7 6 6 4 1 0 1 2 2 2 1 0 0 0 0 0

GEFSSGP_con_prob3kmehi_180.txt.gz
EHI
6 4 2 1 0 0 0 0 0 0 0 1 2 3 3 3 3 2 3 3 4 4 4 4 5 5 5 6 6 6 6 4 3 3 3 3 3 3 3 3 3 3 3 3 3 3 3 3 3
4 3 2 1 0 0 0 0 0 0 0 0 1 2 3 3 3 3 3 3 4 4 4 5 6 5 5 6 6 6 5 4 3 3 3 3 3 3 3 3 3 3 3 3 3 3 3 3 4
3 3 1 0 0 0 0 0 0 0 0 0 0 1 3 3 3 3 3 4 5 5 4 6 8 8 6 5 4 4 4 3 3 3 3 3 3 3 3 3 3 3 3 3 3 3 3 4 4
2 2 1 0 0 0 0 0 0 0 0 0 0 1 3 3 3 3 4 5 6 6 5 7 12 12 7 5 4 3 3 3 3 3 3 3 3 3 3 3 4 3 3 3 3 3 3 3 4
1 1 0 0 0 0 0 0 0 1 1 1 1 2 3 3 3 4 5 6 6 6 6 9 13 13 9 7 6 4 3 3 3 3 3 3 3 3 3 4 4 4 3 3 3 3 3 3 3
0 0 0 0 0 0 0 0 0 1 2 1 2 3 3 3 4 5 6 5 5 5 6 7 10 9 8 8 7 5 3 3 3 3 3 3 3 3 3 3 4 4 4 3 3 3 3 3 3
0 0 0 0 0 0 0 0 0 1 1 0 1 3 3 3 4 6 6 4 4 4 4 5 5 5 5 6 7 5 4 3 3 3 4 4 4 3 3 3 3 4 3 3 3 3 3 3 3
0 0 0 0 0 0 0 0 0 0 0 0 1 2 4 5 6 7 6 4 3 3 3 3 3 3 3 4 6 5 4 4 4 4 5 5 4 4 3 3 3 3 3 3 3 3 3 3 3
0 0 0 0 0 0 0 0 0 0 0 0 1 3 8 11 12 11 8 6 4 3 3 3 3 3 3 4 5 4 4 5 4 4 5 4 4 3 3 4 3 3 3 3 3 3 3 3 3
0 0 0 0 0 0 0 0 0 0 0 0 2 7 15 19 17 14 11 9 6 4 3 4 4 3 3 3 4 4 4 4 4 4 4 3 3 3 4 4 4 3 3 3 3 3 3 3 3
0 0 0 0 0 0 0 0 0 0 0 1 7 16 22 21 17 13 11 10 7 4 4 4 4 4 3 3 3 3 4 3 3 3 3 3 3 3 3 4 3 3 3 3 3 3 3 3 3
0 0 0 0 0 0 0 0 0 0 0 3 12 24 27 21 16 12 10 9 7 5 4 4 4 3 2 2 3 3 3 3 3 3 3 3 3 3 3 3 3 3 3 3 3 3 3 3 3
0 0 0 0 1 1 1 1 0 0 1 5 16 27 28 22 16 13 11 10 8 6 5 3 2 1 1 1 1 2 2 3 3 3 3 3 3 3 3 3 3 3 3 3 3 3 3 3 3
0 0 0 1 2 4 4 3 1 1 3 9 18 25 26 21 17 14 13 13 11 7 4 3 1 0 0 0 0 1 1 1 3 3 3 3 3 3 3 3 3 3 3 3 3 3 3 3 3
0 0 0 1 3 4 5 4 3 3 6 11 16 22 23 20 17 16 16 16 12 7 4 4 3 2 1 0 0 1 1 1 3 3 3 3 3 3 3 3 3 3 3 3 3 3 3 3 3
0 0 0 0 1 2 3 3 3 5 8 10 13 17 18 17 15 15 16 17 14 8 5 6 6 5 3 2 2 3 3 3 3 3 3 3 3 3 3 3 3 3 3 3 3 3 3 3 3
0 0 0 0 0 0 1 2 3 6 9 10 12 14 15 15 13 12 14 18 18 13 9 9 9 7 6 5 5 6 4 3 2 3 3 3 3 3 3 3 3 3 3 3 3 3 3 3 3
0 0 0 0 0 0 0 2 4 8 10 11 13 15 15 14 12 12 15 21 24 21 18 16 12 9 8 7 7 7 5 2 1 1 2 2 2 3 3 3 2 2 3 3 3 3 2 3 3
0 0 0 0 0 0 0 2 7 10 11 13 16 17 16 14 12 15 21 27 31 31 29 26 20 15 12 10 9 8 5 2 1 0 1 1 1 1 2 1 1 1 1 2 3 3 3 3 3
0 0 0 0 0 0 0 2 7 9 10 13 17 19 18 16 17 23 30 35 37 36 35 34 28 20 14 11 10 8 5 4 3 2 1 1 0 1 1 0 0 0 0 1 1 2 2 2 2
0 0 0 0 0 0 0 1 4 6 8 12 17 20 21 22 25 31 36 38 39 37 35 34 30 23 15 11 9 7 6 6 5 4 3 2 2 2 1 1 1 0 0 0 0 1 1 1 1
0 0 0 0 0 0 0 0 1 2 5 11 17 23 26 28 33 38 38 38 39 39 34 29 25 21 15 12 10 7 6 6 6 5 4 3 3 3 3 2 2 1 1 1 1 1 0 0 0
0 0 0 0 0 0 0 0 0 1 4 9 17 25 30 32 36 39 37 35 38 39 33 25 20 18 16 14 11 8 7 6 5 4 3 3 3 3 3 3 3 3 2 2 2 2 1 0 0
0 0 0 0 0 0 0 0 0 0 3 7 15 25 31 33 36 37 35 35 37 36 30 23 19 17 17 16 13 10 8 6 4 3 3 3 3 3 3 3 3 3 3 3 3 3 2 1 0
0 0 0 0 0 0 0 0 0 1 3 6 12 23 30 32 34 34 34 35 36 34 28 22 18 17 18 18 17 13 9 6 5 4 3 3 3 3 3 3 3 3 3 3 3 3 3 1 0
0 0 0 0 0 0 0 0 0 1 2 4 10 22 30 31 31 32 33 33 32 31 27 23 19 16 17 18 18 16 11 8 6 5 4 3 3 3 3 3 3 3 3 3 3 3 3 2 1
0 0 0 0 0 0 0 0 1 1 2 3 9 19 27 28 28 30 32 30 28 27 25 22 19 17 18 19 18 16 12 9 7 6 5 4 4 3 3 3 3 2 2 2 2 3 3 3 3
0 0 0 0 0 0 0 0 1 2 2 4 8 16 22 26 27 29 31 30 28 26 23 20 19 19 20 20 18 15 12 9 7 6 6 6 5 4 3 2 1 1 1 1 1 1 2 2 2
0 0 0 0 0 0 0 0 0 2 4 6 9 14 19 23 25 28 29 29 29 27 23 20 20 21 21 21 19 16 12 10 8 7 6 6 6 5 3 2 1 1 1 0 0 0 1 1 1
0 0 0 0 0 0 0 0 1 2 4 7 11 14 18 19 23 27 28 27 29 28 24 22 24 24 21 20 20 16 12 10 8 7 6 6 6 6 4 2 2 1 1 0 0 0 0 0 0

GEFSSGP_con_prob3kmehi_186.txt.gz
EHI
4 2 3 3 1 0 0 0 0 0 0 0 0 0 0 0 0 0 0 0 0 0 0 1 2 3 3 2 1 0 0 0 0 0 0 0 0 0 0 0 0 0 0 0 0 0 0 0 0
2 2 3 2 1 0 0 0 0 0 0 0 0 0 0 0 0 0 0 0 0 0 0 1 2 2 2 2 1 0 0 0 0 0 0 0 0 0 0 0 0 0 0 0 0 0 0 0 0
2 2 2 1 0 0 0 0 0 0 0 0 0 0 0 0 0 0 0 0 0 0 0 0 1 1 1 1 0 0 0 0 0 0 0 0 0 0 0 0 0 0 0 0 0 0 0 0 0
3 2 1 0 0 0 0 0 0 0 0 0 0 0 0 0 0 0 0 0 0 0 0 0 0 0 0 0 0 0 0 0 0 0 0 0 0 0 0 0 0 0 0 0 0 0 0 0 0
4 2 0 0 0 0 0 0 0 0 0 0 0 0 0 0 0 0 0 0 0 0 1 1 1 0 0 0 0 0 0 0 0 0 0 0 0 0 0 0 0 0 0 0 0 0 0 0 0
2 1 0 0 0 0 0 0 0 0 0 0 0 0 0 0 0 0 0 0 0 0 1 1 1 0 0 0 0 0 0 0 0 0 0 0 1 1 1 0 0 0 0 0 0 0 0 0 0
0 0 0 0 0 0 0 0 0 0 0 0 0 0 1 1 1 0 0 0 0 0 0 0 0 0 0 0 0 0 0 0 0 0 1 1 1 2 1 0 0 0 0 0 0 0 0 0 0
0 0 0 0 0 0 0 0 0 0 0 0 0 0 2 4 4 1 0 0 0 0 0 0 0 0 0 0 0 0 0 0 0 0 0 0 1 1 0 0 0 0 0 0 0 0 0 0 0
0 0 0 0 0 0 0 0 0 0 0 0 0 1 3 6 6 3 1 0 0 0 0 0 0 0 0 0 0 0 0 0 0 0 0 0 0 0 0 0 0 0 0 0 1 0 0 0 0
0 0 0 0 0 0 0 0 0 0 0 0 1 3 4 6 5 3 1 1 2 1 1 1 1 1 0 0 0 0 0 0 0 0 0 0 0 0 0 0 0 0 0 0 0 0 0 0 0
0 0 0 0 0 0 0 0 0 0 0 0 2 5 6 6 4 2 3 4 4 4 2 1 1 1 1 1 1 1 1 1 1 0 0 0 0 0 0 0 0 0 0 0 0 0 0 0 0
0 0 0 0 0 0 0 1 1 1 1 1 3 7 9 6 3 3 4 5 5 4 3 1 1 1 1 2 2 2 2 2 1 0 0 0 0 0 0 0 0 0 0 0 0 0 0 0 0
0 0 0 0 0 0 0 1 2 2 2 3 4 6 7 5 3 4 6 7 6 4 3 2 1 2 3 4 3 2 1 1 1 0 0 0 0 0 0 0 0 0 0 0 0 0 0 0 0
0 0 0 0 0 0 0 1 2 3 3 4 4 4 3 2 3 5 8 10 9 8 7 5 5 5 6 5 3 2 1 0 0 0 0 0 0 0 0 0 0 0 0 0 0 0 0 0 0
0 0 0 0 0 0 0 0 2 3 3 4 4 4 2 2 4 7 9 10 9 11 11 10 8 8 8 7 6 4 2 1 0 0 0 0 0 0 0 0 0 0 0 0 0 0 0 0 0
0 0 0 0 0 0 0 1 2 3 3 4 5 6 7 6 6 6 7 6 6 10 15 15 12 12 12 12 10 8 5 2 1 1 0 0 0 0 0 0 0 0 0 0 0 0 0 0 1
0 0 0 0 0 0 0 2 4 3 2 3 6 9 12 13 11 7 5 5 7 12 18 20 18 18 17 16 14 11 7 4 2 2 1 0 0 0 0 0 0 0 0 0 0 0 1 1 2
0 0 0 0 0 0 0 2 6 5 3 2 6 11 17 20 19 12 8 9 14 19 23 24 24 24 23 20 16 12 8 4 3 2 1 0 0 0 1 1 1 0 0 0 0 0 1 2 2
0 0 0 0 0 0 0 3 6 7 5 3 6 12 19 25 25 20 15 16 21 27 29 30 30 30 29 26 19 14 9 5 3 2 1 1 1 1 2 3 3 2 1 0 0 0 1 1 1
0 0 0 0 0 0 0 2 5 7 6 5 6 11 19 26 29 28 25 25 29 34 35 35 34 32 31 30 23 16 10 7 6 4 2 2 3 3 3 3 3 4 3 1 0 0 0 0 0
0 0 0 0 0 0 0 2 5 8 9 9 8 11 18 26 32 34 35 36 36 38 38 36 36 34 31 28 24 18 14 11 8 6 4 3 4 5 5 3 2 2 2 2 0 0 1 1 0
0 0 0 0 0 0 0 2 5 9 13 15 14 14 18 25 32 37 41 42 40 37 35 36 38 36 32 26 21 19 17 13 9 5 4 3 4 5 6 4 2 2 2 1 1 1 2 2 1
0 0 0 0 0 0 0 0 2 6 11 17 18 18 19 24 31 36 38 40 38 32 30 34 38 37 32 27 22 20 19 15 9 5 4 5 4 4 5 6 6 5 4 3 2 3 3 3 3
0 0 0 0 0 0 0 0 0 2 5 12 19 22 23 27 33 35 36 37 34 30 27 30 33 34 32 29 25 23 22 18 13 9 7 6 5 4 5 6 9 9 6 4 3 3 4 4 4
0 0 0 0 0 0 0 0 0 1 2 7 16 22 25 28 34 38 39 39 36 33 29 29 32 33 32 32 30 26 23 20 17 12 9 7 6 5 6 7 9 10 8 5 3 3 3 4 4
0 0 0 0 0 0 0 0 1 1 2 3 10 17 22 26 34 39 40 39 39 37 34 34 36 36 34 33 31 26 23 20 18 14 10 8 7 7 7 8 9 9 8 5 4 3 3 3 4
0 0 0 0 0 0 0 0 1 2 2 3 8 16 22 27 33 38 38 37 37 37 37 38 39 39 37 34 28 24 23 22 20 17 13 10 11 10 8 8 9 9 7 6 5 4 3 4 4
0 0 0 0 0 0 0 0 1 3 5 7 12 21 28 31 35 39 38 36 36 37 39 38 39 40 38 33 27 24 24 25 23 20 16 13 12 11 9 8 8 7 7 6 6 4 3 3 4
0 0 0 0 0 0 0 0 1 4 8 11 18 26 32 34 38 41 40 38 38 38 39 39 39 38 36 33 30 27 26 25 24 21 17 15 13 11 9 8 7 7 7 7 7 5 4 4 4
0 0 0 0 0 0 0 1 2 4 7 12 21 29 34 35 40 43 42 41 40 39 40 41 40 38 36 34 34 31 27 24 23 21 18 15 13 12 10 8 7 6 7 8 8 6 5 4 4

GEFSSGP_con_prob3kmehi_192.txt.gz
EHI
9 18 35 39 23 5 0 0 0 0 0 0 0 0 0 0 0 0 1 4 6 4 1 0 0 0 0 0 0 0 0 0 0 0 0 0 0 0 0 0 0 0 0 0 0 0 0 0 0
12 22 32 27 12 2 0 0 0 0 0 0 0 0 0 0 0 0 1 4 8 9 5 1 0 0 0 0 0 0 0 0 0 0 0 0 0 0 0 0 0 0 0 0 0 0 0 0 0
17 22 22 12 3 0 0 0 0 0 0 0 0 0 0 0 0 0 1 4 11 14 9 2 0 0 0 0 0 0 0 0 0 0 0 0 0 0 0 0 0 0 0 0 0 0 0 0 0
19 18 11 3 0 0 0 0 0 0 0 0 0 0 0 0 0 0 0 3 10 13 9 2 0 0 0 0 0 0 0 0 0 0 0 0 0 0 0 0 0 0 0 0 0 0 0 0 0
16 11 4 0 0 0 0 0 0 0 0 0 0 0 0 0 0 0 0 2 8 11 7 2 0 0 0 0 0 0 0 0 0 0 0 0 0 0 0 0 0 0 0 0 0 0 0 0 0
9 5 1 0 0 0 0 0 0 0 0 0 0 0 0 0 0 0 0 2 6 9 7 3 2 2 1 0 0 0 0 0 0 0 0 0 0 0 0 0 0 0 0 0 0 0 0 0 0
4 2 0 0 0 0 0 0 0 0 0 0 0 0 0 0 0 0 0 2 4 7 7 6 6 5 4 2 1 0 0 0 0 0 0 0 0 0 0 0 0 0 0 0 0 0 0 0 0
1 0 0 0 0 0 0 0 0 0 0 0 0 0 0 0 0 0 1 2 4 5 6 9 8 6 5 5 3 1 1 0 0 0 0 0 0 0 0 0 0 0 0 0 0 0 0 0 1
0 0 0 0 0 0 0 0 0 0 0 0 0 1 1 1 1 2 3 4 5 5 7 8 8 5 5 6 6 4 2 1 0 1 3 2 1 0 0 1 1 1 0 0 0 0 0 0 1
0 0 0 0 0 0 0 0 0 0 0 1 1 2 2 1 2 5 7 8 7 7 6 5 5 5 6 8 9 6 4 3 1 2 4 4 2 0 1 2 2 1 0 0 1 1 1 0 1
0 0 0 0 0 0 0 0 0 1 2 2 3 3 2 1 2 7 10 9 8 7 6 5 5 9 12 13 9 5 3 3 1 1 2 2 1 0 1 2 2 2 1 0 1 2 1 1 2
0 0 0 0 0 0 0 0 0 1 3 4 4 3 2 1 3 7 9 9 8 8 7 8 11 14 17 16 10 4 2 2 2 2 2 1 1 0 0 1 1 2 1 0 1 1 1 1 2
0 0 0 0 0 0 0 0 0 2 5 6 4 2 2 4 5 7 8 8 9 10 11 13 14 14 15 15 14 9 5 3 3 4 3 2 1 1 1 1 1 1 1 0 0 1 1 1 1
0 0 0 0 0 0 0 1 2 4 6 7 5 3 3 5 8 10 11 11 12 15 17 16 13 13 13 13 14 13 9 5 5 4 3 1 1 2 2 1 1 0 0 0 0 0 1 1 1
0 0 0 0 0 0 1 3 5 5 5 6 6 6 8 9 12 15 17 19 20 25 26 18 13 15 18 16 14 11 8 7 7 6 4 1 2 3 3 2 1 1 1 2 2 1 1 2 3
0 0 0 0 0 0 1 4 6 5 4 6 9 13 18 20 19 20 24 27 33 38 36 25 20 24 25 21 16 10 7 9 10 8 5 4 4 5 4 3 2 3 4 5 5 3 2 3 5
0 0 0 0 0 0 1 4 6 5 5 9 14 21 28 31 30 29 31 36 44 48 43 34 30 32 31 26 20 13 11 11 10 8 6 6 7 7 6 5 5 5 5 5 4 4 3 4 5
0 0 0 0 0 0 1 4 6 5 7 13 21 29 38 41 41 40 38 42 52 55 49 40 36 36 34 29 24 18 13 12 10 9 8 7 7 8 9 9 9 6 4 3 3 4 5 5 6
0 0 0 0 0 0 1 4 6 6 8 14 25 35 44 49 52 52 48 50 58 61 57 50 44 40 37 33 29 24 17 14 14 13 13 12 11 11 11 10 10 7 4 3 3 4 5 6 6
0 0 0 0 0 0 1 3 6 7 8 12 23 34 42 53 62 64 60 56 61 67 66 60 54 47 41 37 33 27 21 18 18 18 20 20 19 16 12 11 11 8 6 4 4 5 5 4 4
0 0 0 0 0 0 0 2 6 8 8 11 19 29 38 51 65 70 66 61 62 68 69 65 61 53 44 39 33 27 23 21 21 22 25 26 24 20 16 15 15 12 8 6 5 5 5 4 3
0 0 0 0 0 0 0 2 5 7 8 10 15 24 34 47 61 69 69 65 62 64 68 71 67 58 48 40 32 27 25 23 23 24 25 27 26 22 20 19 18 16 12 8 7 6 6 4 3
0 0 0 0 0 0 0 2 4 6 7 9 13 20 30 44 57 67 70 67 62 61 67 72 70 63 53 44 36 31 26 23 22 22 23 25 26 25 22 20 19 17 13 11 9 8 6 5 4
0 0 0 0 0 0 0 1 3 4 7 10 13 17 27 40 55 65 70 68 63 61 64 67 67 64 57 48 40 35 29 22 20 20 21 23 27 27 24 21 20 18 14 12 11 9 8 7 6
0 0 0 0 0 0 0 1 1 3 7 11 12 15 25 40 53 62 68 69 65 62 63 64 66 64 57 48 41 38 33 25 22 22 22 24 26 26 25 23 21 19 15 12 11 11 10 8 6
0 0 0 0 0 0 1 2 1 3 8 11 13 17 27 40 50 57 63 65 64 62 61 64 67 64 57 48 43 41 37 30 26 26 26 26 25 23 22 23 20 17 15 13 12 13 11 8 6
0 0 0 0 0 0 2 3 3 5 8 11 14 20 29 38 47 52 54 58 61 60 60 64 68 65 57 49 45 42 39 34 30 30 31 30 26 22 23 24 21 17 15 15 15 14 11 8 8
0 0 0 0 0 0 1 3 4 5 7 11 15 23 31 37 43 47 48 51 57 60 62 66 69 66 58 52 47 43 40 37 34 34 34 33 28 24 25 26 23 17 15 15 15 13 10 8 9
0 0 0 0 0 0 1 2 3 3 5 11 18 27 34 39 43 47 47 50 56 61 64 67 68 65 59 54 50 46 40 38 37 36 35 34 31 27 26 26 23 17 14 16 16 13 9 8 8
0 0 0 0 0 0 1 2 1 1 4 11 21 30 38 42 46 49 48 51 56 61 63 65 66 63 58 54 52 47 40 37 38 36 34 34 32 28 25 25 22 16 14 17 17 13 10 8 7